Location: ActonStarParty
(42.4766°N, 71.4538°W)
Time: 17:43:02
(UTC-04:00)

Amateur Radio Satellites - All Passes

Search period start: 29 July 2016 17:13
Search period end: 30 July 2016 17:13
Location: ActonStarParty, 42.4766°N, 71.4538°W

Satellite Date Start Highest point End Downlink Frequencies (MHz)
Time Altitude Azimuth
CUTE-I 29 Jul 17:20:05 17:24:43 31° 66° (ENE) 17:29:22 437.470
NOAA 15 29 Jul 17:31:04 17:36:07 49° 70° (ENE) 17:41:09 137.62
KKS-1 29 Jul 17:31:40 17:35:44 34° 291° (WNW) 17:39:46 437.445
SO-50 29 Jul 17:32:44 17:36:20 23° 248° (WSW) 17:39:52 436.795
RS-15 29 Jul 17:35:43 17:45:56 32° 257° (WSW) 17:56:01 29.354- 29.394
AO-7 29 Jul 17:43:33 17:47:34 14° 273° (W) 17:51:38 29.400- 29.500
BRITE-PL 29 Jul 17:49:56 17:54:03 83° 78° (ENE) 17:58:17 437.365/2234.400
Cosmos 2499 29 Jul 17:52:42 17:58:48 20° 298° (WNW) 18:04:49 435.465 / 435.565
HORYU 2 29 Jul 17:54:59 17:58:26 22° 266° (W) 18:01:54 437.375
PHONESAT 2.4 29 Jul 18:01:21 18:04:24 59° 177° (S) 18:07:27 2401.200-2431.200
STARS 29 Jul 18:03:10 18:07:05 31° 292° (WNW) 18:10:59 437.465
LilacSat-2 29 Jul 18:08:44 18:12:36 77° 76° (ENE) 18:16:31 437.200
PCSat 29 Jul 18:11:11 18:15:49 30° 109° (ESE) 18:20:29 145.827
CUBESAT XI-V 29 Jul 18:14:29 18:19:08 87° 282° (WNW) 18:23:45 437.345
NOAA 18 29 Jul 18:17:39 18:23:12 85° 254° (WSW) 18:28:48 137.9125
DOVE 4 29 Jul 18:18:00 18:21:52 33° 69° (ENE) 18:26:00 437.250
HO-68 29 Jul 18:22:31 18:27:58 24° 57° (ENE) 18:33:26 435.675
BEESAT 3 29 Jul 18:23:00 18:26:53 70° 304° (WNW) 18:30:51 437.485
BEESAT 2 29 Jul 18:34:28 18:38:25 82° 121° (ESE) 18:42:25 435.950
Cubesat XI-IV 29 Jul 18:36:25 18:41:43 59° 259° (W) 18:47:03 437.490
GOMX 1 29 Jul 18:38:19 18:42:29 68° 260° (W) 18:46:52 467.674
CANX-2 29 Jul 18:43:34 18:46:12 16° 64° (ENE) 18:48:50 2200.000
CUTE 1.7 + AOD 2 29 Jul 18:56:01 18:59:01 19° 66° (ENE) 19:02:02 437.475
CUTE-I 29 Jul 18:59:43 19:04:39 37° 263° (W) 19:09:37 437.470
YUBILEINY 29 Jul 19:10:33 19:17:15 23° 63° (ENE) 19:23:52 435.215
STRAND 1 29 Jul 19:11:46 19:15:46 23° 94° (E) 19:19:44 437.568
NOAA 15 29 Jul 19:12:11 19:16:08 21° 267° (W) 19:20:06 137.62
AIST 2 29 Jul 19:22:51 19:24:33 12° 108° (ESE) 19:26:14 435.215
SEEDS 29 Jul 19:29:20 19:33:01 30° 69° (ENE) 19:36:42 437.485
COMPASS 1 29 Jul 19:36:15 19:39:40 25° 68° (ENE) 19:43:05 437.405
PHONESAT 2.4 29 Jul 19:37:47 19:40:44 42° 194° (SSW) 19:43:41 2401.200-2431.200
O/OREOS (USA 219) 29 Jul 19:38:38 19:42:30 30° 104° (ESE) 19:46:24 437.305
CINEMA 3 29 Jul 19:46:10 19:50:43 81° 78° (ENE) 19:55:33 145.822/145.860
PCSat 29 Jul 19:53:55 19:59:02 42° 307° (NW) 20:04:12 145.827
CUBESAT XI-V 29 Jul 19:55:17 19:55:46 10° 301° (WNW) 19:56:13 437.345
DOVE 4 29 Jul 19:56:10 19:59:39 23° 267° (W) 20:03:19 437.250
FUNcube-1 29 Jul 20:00:32 20:03:17 16° 63° (ENE) 20:06:05 145.935
AAUSAT CUBESAT 2 29 Jul 20:01:19 20:05:08 36° 71° (ENE) 20:08:57 437.432
ZACube-1 29 Jul 20:02:42 20:05:45 18° 64° (ENE) 20:08:50 437.345
NOAA 18 29 Jul 20:03:13 20:04:38 11° 272° (W) 20:06:04 137.9125
BEESAT 3 29 Jul 20:04:32 20:05:19 10° 324° (NW) 20:06:07 437.485
UWE-3 29 Jul 20:07:20 20:11:19 29° 68° (ENE) 20:15:20 435.000/436.395/437.385
HO-68 29 Jul 20:07:49 20:15:00 74° 256° (WSW) 20:22:14 435.675
BEESAT 2 29 Jul 20:14:47 20:16:48 13° 321° (NW) 20:18:51 435.950
CANX-2 29 Jul 20:17:32 20:21:41 48° 261° (W) 20:25:50 2200.000
ISS 29 Jul 20:28:36 20:31:47 54° 141° (SE) 20:34:58 145.825
CUTE 1.7 + AOD 2 29 Jul 20:30:33 20:34:35 40° 262° (W) 20:38:37 437.475
CUBEBUG 2 29 Jul 20:34:34 20:39:11 80° 76° (ENE) 20:43:56 437.445
Cosmos 2491 29 Jul 20:35:19 20:42:56 36° 85° (E) 20:50:33 435.465 / 435.565
Oscar 11 29 Jul 20:37:42 20:41:43 38° 71° (ENE) 20:45:46 145.826/435.025
STRAND 1 29 Jul 20:50:17 20:55:07 44° 290° (WNW) 20:59:56 437.568
HUMSAT D 29 Jul 20:53:51 20:55:54 13° 63° (ENE) 20:57:57 437.325/437.525
AIST 2 29 Jul 20:58:24 21:02:29 65° 306° (NW) 21:06:36 435.215
Cosmos 2504 29 Jul 21:04:08 21:11:31 36° 70° (ENE) 21:18:23 435.465 / 435.565
SEEDS 29 Jul 21:05:17 21:08:42 24° 265° (W) 21:12:09 437.485
YUBILEINY 29 Jul 21:06:15 21:15:08 81° 265° (W) 21:23:54 435.215
M-CUBED/EXP-1 PRIME 29 Jul 21:10:22 21:13:59 38° 65° (ENE) 21:17:53 437.505
COMPASS 1 29 Jul 21:11:31 21:15:07 28° 264° (W) 21:18:45 437.405
PHONESAT 2.4 29 Jul 21:15:08 21:16:46 14° 209° (SSW) 21:18:25 2401.200-2431.200
O/OREOS (USA 219) 29 Jul 21:18:02 21:21:52 28° 302° (WNW) 21:25:44 437.305
AO-85 29 Jul 21:27:04 21:31:13 36° 48° (NE) 21:35:01 145.980
CINEMA 3 29 Jul 21:27:46 21:28:32 10° 274° (W) 21:29:18 145.822/145.860
PRISM 29 Jul 21:31:01 21:35:08 79° 102° (ESE) 21:39:15 437.425
AUBIESAT-1 29 Jul 21:33:44 21:37:33 57° 68° (ENE) 21:41:43 437.475
FUNcube-1 29 Jul 21:34:36 21:39:03 57° 260° (W) 21:43:36 145.935
DELFI C3 29 Jul 21:35:11 21:39:09 72° 76° (ENE) 21:43:06 145.870
ZACube-1 29 Jul 21:37:13 21:41:38 50° 261° (W) 21:46:08 437.345
AAUSAT CUBESAT 2 29 Jul 21:37:48 21:40:44 19° 267° (W) 21:43:41 437.432
UWE-3 29 Jul 21:43:40 21:47:41 30° 265° (W) 21:51:48 435.000/436.395/437.385
UNISAT 6 29 Jul 21:54:49 21:56:59 13° 89° (E) 21:59:07 437.425
HO-68 29 Jul 22:01:16 22:03:52 12° 274° (W) 22:06:29 435.675
ISS 29 Jul 22:05:31 22:08:22 27° 339° (NNW) 22:11:13 145.825
Oscar 11 29 Jul 22:14:50 22:17:59 19° 267° (W) 22:21:10 145.826/435.025
CUBEBUG 1 29 Jul 22:14:52 22:16:23 12° 61° (ENE) 22:17:54 437.445
ESTCUBE 1 29 Jul 22:15:10 22:18:14 18° 64° (ENE) 22:21:19 437.505/2401.250
CUBEBUG 2 29 Jul 22:15:17 22:16:24 11° 273° (W) 22:17:32 437.445
VELOX 1 29 Jul 22:21:00 22:22:47 12° 61° (ENE) 22:24:33 145.980
HUMSAT D 29 Jul 22:26:44 22:31:00 63° 259° (W) 22:35:17 437.325/437.525
Cosmos 2491 29 Jul 22:31:02 22:39:26 51° 285° (WNW) 22:47:54 435.465 / 435.565
ANTELSAT 29 Jul 22:31:38 22:35:46 32° 96° (E) 22:39:47 437.575/2403.000
AIST 2 29 Jul 22:40:51 22:41:47 11° 325° (NW) 22:42:45 435.215
M-CUBED/EXP-1 PRIME 29 Jul 22:46:01 22:48:42 18° 264° (W) 22:51:33 437.505
DX 1 29 Jul 22:54:00 22:57:07 20° 65° (ENE) 23:00:15 434.975-435.025
Cosmos 2504 29 Jul 22:57:28 23:05:02 46° 272° (W) 23:12:05 435.465 / 435.565
UKube-1 29 Jul 23:02:12 23:05:14 19° 65° (ENE) 23:08:16 .
AISAT 29 Jul 23:03:36 23:07:34 34° 69° (ENE) 23:11:33 437.250
YUBILEINY 29 Jul 23:05:39 23:10:24 16° 285° (WNW) 23:15:10 435.215
AO-85 29 Jul 23:07:59 23:11:25 23° 248° (WSW) 23:14:39 145.980
AUBIESAT-1 29 Jul 23:10:50 23:12:29 12° 266° (W) 23:14:09 437.475
AIST 1 29 Jul 23:11:06 23:13:52 16° 70° (ENE) 23:16:36
TIGRISAT 29 Jul 23:12:07 23:16:46 81° 102° (ESE) 23:21:17 435.000
QB50P2 29 Jul 23:19:59 23:22:48 17° 92° (E) 23:25:36 145.880/145.840
POLYITAN 1 29 Jul 23:22:36 23:25:27 17° 92° (E) 23:28:17 437.675
SPROUT 29 Jul 23:29:01 23:32:40 28° 68° (ENE) 23:36:21 437.525
UNISAT 6 29 Jul 23:29:34 23:34:09 63° 286° (WNW) 23:38:36 437.425
ISS 29 Jul 23:43:26 23:45:35 16° 360° (N) 23:47:44 145.825
50 SAT 29 Jul 23:44:26 23:48:06 82° 257° (WSW) 23:51:46 437.505
CUBEBUG 1 29 Jul 23:47:45 23:52:03 73° 257° (WSW) 23:56:24 437.445
JAS-2 29 Jul 23:49:37 23:52:00 13° 90° (E) 23:54:29 435.910
ESTCUBE 1 29 Jul 23:50:23 23:54:42 46° 261° (W) 23:59:02 437.505/2401.250
VELOX 1 29 Jul 23:54:17 23:58:39 72° 258° (WSW) 00:03:04 145.980
NANOSAT C BR1 30 Jul 00:01:59 00:06:05 43° 99° (E) 00:10:07 145.865
DUCHIFAT 1 30 Jul 00:04:48 00:08:53 43° 99° (E) 00:12:56 145.980
BUGSAT 1 30 Jul 00:07:39 00:10:53 21° 94° (E) 00:14:06 437.445
ANTELSAT 30 Jul 00:08:30 00:12:21 26° 293° (WNW) 00:16:06 437.575/2403.000
TISAT 1 30 Jul 00:14:07 00:17:18 21° 66° (ENE) 00:20:31 437.305
QB50P1 30 Jul 00:26:03 00:30:22 86° 100° (E) 00:34:38 145.935-145.965
DX 1 30 Jul 00:28:58 00:33:01 40° 261° (W) 00:37:08 434.975-435.025
POPSAT HIP 1 30 Jul 00:32:49 00:37:07 82° 286° (WNW) 00:41:24 437.405
UKube-1 30 Jul 00:36:55 00:40:59 41° 261° (W) 00:45:04 .
AISAT 30 Jul 00:40:40 00:44:06 22° 266° (W) 00:47:34 437.250
AIST 1 30 Jul 00:47:32 00:51:42 45° 267° (W) 00:55:52
ITUPSAT 1 30 Jul 00:50:21 00:52:15 12° 59° (ENE) 00:54:09 437.325
TIGRISAT 30 Jul 00:51:04 00:52:45 12° 300° (WNW) 00:54:23 435.000
QB50P2 30 Jul 00:54:44 00:58:49 43° 288° (WNW) 01:02:52 145.880/145.840
POLYITAN 1 30 Jul 00:57:23 01:01:28 42° 288° (WNW) 01:05:29 437.675
BEESAT 3 30 Jul 01:03:44 01:05:13 12° 37° (NE) 01:06:40 437.485
SPROUT 30 Jul 01:04:58 01:08:34 26° 265° (W) 01:12:12 437.525
GONETS M04 30 Jul 01:14:50 01:22:34 33° 69° (ENE) 01:30:16
ISS 30 Jul 01:20:00 01:22:49 26° 20° (NNE) 01:25:37 145.825
JAS-2 30 Jul 01:32:16 01:37:37 81° 285° (WNW) 01:43:30 435.910
NANOSAT C BR1 30 Jul 01:38:35 01:41:29 18° 295° (WNW) 01:44:22 145.865
SWISSCUBE 30 Jul 01:38:49 01:43:14 39° 69° (ENE) 01:47:41 437.505
DUCHIFAT 1 30 Jul 01:41:21 01:44:14 18° 295° (WNW) 01:47:07 145.980
BUGSAT 1 30 Jul 01:42:26 01:46:20 35° 290° (WNW) 01:50:12 437.445
Cosmos 2499 30 Jul 01:47:32 01:54:28 34° 69° (ENE) 02:00:57 435.465 / 435.565
TISAT 1 30 Jul 01:48:55 01:52:44 34° 263° (W) 01:56:37 437.305
Oscar 19 30 Jul 01:53:09 01:58:08 46° 99° (E) 02:03:06 437.125/150
Gurwin Techsat 1B 30 Jul 01:58:51 02:03:06 24° 94° (E) 02:07:20 435.225
BEESAT 30 Jul 01:59:32 02:04:12 56° 72° (ENE) 02:08:54 436.000
MOZHAYETS 4 30 Jul 02:16:54 02:18:16 11° 60° (ENE) 02:19:38
ITUPSAT 1 30 Jul 02:24:35 02:29:24 85° 259° (WSW) 02:34:14 437.325
BEESAT 3 30 Jul 02:39:34 02:43:33 81° 56° (NE) 02:47:30 437.485
BEESAT 2 30 Jul 02:51:53 02:55:51 58° 54° (NE) 02:59:48 435.950
KKS-1 30 Jul 02:54:15 02:57:49 24° 66° (ENE) 03:01:24 437.445
ISS 30 Jul 02:56:13 02:59:26 59° 218° (SW) 03:02:38 145.825
PCSat 30 Jul 02:57:47 03:02:34 30° 49° (NE) 03:07:19 145.827
GONETS M04 30 Jul 03:11:15 03:19:49 58° 269° (W) 03:28:24
SWISSCUBE 30 Jul 03:17:20 03:21:08 23° 266° (W) 03:24:57 437.505
JAS-2 30 Jul 03:20:22 03:22:00 11° 302° (WNW) 03:23:40 435.910
CUSAT 1 30 Jul 03:23:05 03:26:52 60° 99° (E) 03:29:53 437.405
STARS 30 Jul 03:24:21 03:27:56 25° 66° (ENE) 03:31:32 437.465
Oscar 19 30 Jul 03:33:07 03:37:09 24° 296° (WNW) 03:41:13 437.125/150
ITAMSAT 1 30 Jul 03:34:12 03:39:20 58° 101° (E) 03:44:26 435.822/435.867
Gurwin Techsat 1B 30 Jul 03:38:12 03:43:15 45° 290° (WNW) 03:48:16 435.225
BEESAT 30 Jul 03:39:24 03:42:20 16° 269° (W) 03:45:17 436.000
Cosmos 2499 30 Jul 03:40:29 03:47:48 47° 271° (W) 03:54:37 435.465 / 435.565
AIST 2 30 Jul 03:41:54 03:44:12 14° 39° (NE) 03:46:31 435.215
CUBESAT XI-V 30 Jul 03:44:40 03:46:02 11° 60° (ENE) 03:47:24 437.345
AO-7 30 Jul 03:46:23 03:53:57 36° 97° (E) 04:01:25 29.400- 29.500
MOZHAYETS 4 30 Jul 03:50:06 03:54:43 86° 254° (WSW) 03:59:23
DANDE 30 Jul 04:13:51 04:19:08 84° 99° (E) 04:23:02 436.750
KKS-1 30 Jul 04:30:12 04:34:13 33° 263° (W) 04:38:16 437.445
BEESAT 2 30 Jul 04:31:19 04:33:12 13° 251° (WSW) 04:35:05 435.950
PCSat 30 Jul 04:40:58 04:46:07 44° 247° (WSW) 04:51:12 145.827
STARS 30 Jul 05:00:13 05:04:09 32° 263° (W) 05:08:07 437.465
ITAMSAT 1 30 Jul 05:14:45 05:18:21 19° 298° (WNW) 05:21:56 435.822/435.867
CUBESAT XI-V 30 Jul 05:18:07 05:22:44 85° 259° (WSW) 05:27:21 437.345
AIST 2 30 Jul 05:19:04 05:23:15 84° 240° (WSW) 05:27:26 435.215
AO-7 30 Jul 05:38:54 05:46:56 53° 297° (WNW) 05:54:54 29.400- 29.500
CUTE-I 30 Jul 05:39:31 05:40:04 10° 87° (E) 05:40:35 437.470
HORYU 2 30 Jul 05:43:54 05:48:23 68° 102° (ESE) 05:52:48 437.375
RS-15 30 Jul 05:46:11 05:56:47 46° 109° (ESE) 06:07:53 29.354- 29.394
NOAA 15 30 Jul 05:46:33 05:49:58 17° 91° (E) 05:53:21 137.62
O/OREOS (USA 219) 30 Jul 05:47:12 05:51:44 66° 65° (ENE) 05:56:16 437.305
BRITE-PL 30 Jul 05:53:00 05:57:14 27° 95° (E) 06:01:43 437.365/2234.400
SO-50 30 Jul 06:09:11 06:10:59 12° 107° (ESE) 06:12:48 436.795
DOVE 4 30 Jul 06:18:12 06:19:18 11° 87° (E) 06:20:24 437.250
STRAND 1 30 Jul 06:27:59 06:32:38 36° 68° (ENE) 06:37:18 437.568
GOMX 1 30 Jul 06:38:25 06:43:11 36° 97° (E) 06:48:07 467.674
NOAA 18 30 Jul 06:39:19 06:44:29 39° 98° (E) 06:49:36 137.9125
Cosmos 2491 30 Jul 06:44:53 06:50:32 18° 60° (ENE) 06:56:10 435.465 / 435.565
Cubesat XI-IV 30 Jul 06:52:58 06:58:12 53° 100° (E) 07:03:24 437.490
CUTE-I 30 Jul 07:15:30 07:20:53 85° 104° (ESE) 07:26:12 437.470
LilacSat-2 30 Jul 07:15:41 07:19:34 75° 284° (WNW) 07:23:22 437.200
HORYU 2 30 Jul 07:22:14 07:24:22 13° 299° (WNW) 07:26:29 437.375
NOAA 15 30 Jul 07:24:57 07:30:09 61° 288° (WNW) 07:35:20 137.62
O/OREOS (USA 219) 30 Jul 07:28:39 07:30:32 12° 262° (W) 07:32:26 437.305
BRITE-PL 30 Jul 07:31:14 07:35:44 37° 290° (WNW) 07:40:33 437.365/2234.400
AO-7 30 Jul 07:34:24 07:37:49 13° 318° (NW) 07:41:14 29.400- 29.500
HO-68 30 Jul 07:36:00 07:41:12 21° 91° (E) 07:46:23 435.675
CINEMA 3 30 Jul 07:40:55 07:44:43 21° 92° (E) 07:48:25 145.822/145.860
SO-50 30 Jul 07:45:53 07:50:47 86° 303° (WNW) 07:55:40 436.795
DOVE 4 30 Jul 07:52:24 07:57:37 86° 101° (E) 08:02:57 437.250
RS-15 30 Jul 07:57:34 08:08:57 59° 313° (NW) 08:21:00 29.354- 29.394
CANX-2 30 Jul 08:02:10 08:05:44 26° 95° (E) 08:09:16 2200.000
STRAND 1 30 Jul 08:07:24 08:11:50 29° 265° (W) 08:16:17 437.568
YUBILEINY 30 Jul 08:13:33 08:20:11 25° 80° (E) 08:26:50 435.215
CUTE 1.7 + AOD 2 30 Jul 08:14:47 08:18:33 31° 96° (E) 08:22:17 437.475
GOMX 1 30 Jul 08:16:41 08:21:08 30° 292° (WNW) 08:25:45 467.674
NOAA 18 30 Jul 08:20:12 08:24:59 31° 296° (WNW) 08:29:45 137.9125
PRISM 30 Jul 08:20:47 08:24:48 60° 73° (ENE) 08:28:49 437.425
CUBEBUG 2 30 Jul 08:26:08 08:29:11 17° 90° (E) 08:32:10 437.445
Cubesat XI-IV 30 Jul 08:33:52 08:37:54 22° 298° (WNW) 08:41:53 437.490
Cosmos 2491 30 Jul 08:40:01 08:48:50 83° 82° (E) 08:57:39 435.465 / 435.565
SEEDS 30 Jul 08:47:32 08:51:36 51° 99° (E) 08:55:39 437.485
COMPASS 1 30 Jul 08:53:03 08:56:59 41° 98° (E) 09:00:53 437.405
UNISAT 6 30 Jul 08:54:19 08:56:49 14° 61° (ENE) 08:59:19 437.425
CUTE-I 30 Jul 08:57:27 09:00:11 14° 302° (WNW) 09:02:55 437.470
CINEMA 3 30 Jul 09:17:13 09:22:03 47° 288° (WNW) 09:26:46 145.822/145.860
AAUSAT CUBESAT 2 30 Jul 09:17:51 09:21:57 63° 101° (E) 09:26:01 437.432
HO-68 30 Jul 09:22:22 09:29:35 74° 289° (WNW) 09:36:43 435.675
FUNcube-1 30 Jul 09:22:33 09:26:19 26° 94° (E) 09:29:58 145.935
ZACube-1 30 Jul 09:25:17 09:29:14 30° 95° (E) 09:33:04 437.345
SO-50 30 Jul 09:28:54 09:31:58 16° 323° (NW) 09:35:02 436.795
ANTELSAT 30 Jul 09:30:43 09:34:49 31° 68° (ENE) 09:38:58 437.575/2403.000
DOVE 4 30 Jul 09:32:01 09:34:37 14° 299° (WNW) 09:37:14 437.250
UWE-3 30 Jul 09:32:07 09:36:39 55° 100° (E) 09:41:01 435.000/436.395/437.385
CANX-2 30 Jul 09:37:59 09:41:32 27° 291° (WNW) 09:45:05 2200.000
Cosmos 2504 30 Jul 09:42:26 09:49:57 32° 84° (E) 09:57:23 435.465 / 435.565
CUTE 1.7 + AOD 2 30 Jul 09:50:55 09:54:14 23° 293° (WNW) 09:57:32 437.475
PRISM 30 Jul 09:59:19 10:00:29 11° 270° (W) 10:01:39 437.425
Oscar 11 30 Jul 09:59:51 10:04:11 73° 102° (ESE) 10:08:27 145.826/435.025
CUBEBUG 2 30 Jul 10:01:33 10:06:07 50° 288° (WNW) 10:10:31 437.445
YUBILEINY 30 Jul 10:07:17 10:16:04 73° 280° (W) 10:24:57 435.215
HUMSAT D 30 Jul 10:10:25 10:13:26 19° 93° (E) 10:16:25 437.325/437.525
TIGRISAT 30 Jul 10:10:42 10:15:21 75° 75° (ENE) 10:20:04 435.000
QB50P2 30 Jul 10:13:51 10:16:16 15° 63° (ENE) 10:18:41 145.880/145.840
RS-15 30 Jul 10:15:06 10:24:50 27° 344° (NNW) 10:34:52 29.354- 29.394
POLYITAN 1 30 Jul 10:16:25 10:18:54 15° 63° (ENE) 10:21:22 437.675
M-CUBED/EXP-1 PRIME 30 Jul 10:22:58 10:27:07 30° 100° (E) 10:31:12 437.505
SEEDS 30 Jul 10:24:35 10:26:52 15° 296° (WNW) 10:29:10 437.485
UNISAT 6 30 Jul 10:28:18 10:32:56 68° 258° (WSW) 10:37:39 437.425
COMPASS 1 30 Jul 10:29:29 10:32:13 17° 295° (WNW) 10:34:57 437.405
Cosmos 2491 30 Jul 10:38:37 10:44:32 21° 282° (WNW) 10:50:28 435.465 / 435.565
AUBIESAT-1 30 Jul 10:45:51 10:50:17 42° 103° (ESE) 10:54:37 437.475
DELFI C3 30 Jul 10:46:48 10:50:44 74° 284° (WNW) 10:54:40 145.870
NANOSAT C BR1 30 Jul 10:54:38 10:58:28 34° 70° (ENE) 11:02:20 145.865
AAUSAT CUBESAT 2 30 Jul 10:55:18 10:56:54 12° 298° (WNW) 10:58:30 437.432
DUCHIFAT 1 30 Jul 10:57:10 11:01:00 34° 70° (ENE) 11:04:52 145.980
FUNcube-1 30 Jul 10:58:39 11:02:32 29° 292° (WNW) 11:06:18 145.935
BUGSAT 1 30 Jul 10:58:39 11:01:14 16° 64° (ENE) 11:03:50 437.445
ZACube-1 30 Jul 11:01:41 11:05:24 26° 293° (WNW) 11:09:03 437.345
ANTELSAT 30 Jul 11:07:29 11:11:29 28° 265° (W) 11:15:33 437.575/2403.000
UWE-3 30 Jul 11:09:48 11:12:37 16° 297° (WNW) 11:15:23 435.000/436.395/437.385
HO-68 30 Jul 11:12:07 11:16:06 16° 309° (NW) 11:20:05 435.675
QB50P1 30 Jul 11:18:41 11:22:54 68° 75° (ENE) 11:27:10 145.935-145.965
POPSAT HIP 1 30 Jul 11:25:27 11:29:42 79° 75° (ENE) 11:34:00 437.405
Cosmos 2504 30 Jul 11:34:05 11:42:50 60° 283° (WNW) 11:51:30 435.465 / 435.565
CUBEBUG 1 30 Jul 11:36:23 11:39:35 20° 93° (E) 11:42:49 437.445
Oscar 11 30 Jul 11:38:14 11:39:42 12° 299° (WNW) 11:41:11 145.826/435.025
ESTCUBE 1 30 Jul 11:42:09 11:46:14 33° 97° (E) 11:50:17 437.505/2401.250
AO-85 30 Jul 11:43:51 11:46:05 13° 107° (ESE) 11:48:17 145.980
VELOX 1 30 Jul 11:44:23 11:47:43 20° 94° (E) 11:51:02 145.980
HUMSAT D 30 Jul 11:45:21 11:49:11 35° 290° (WNW) 11:52:56 437.325/437.525
JAS-2 30 Jul 11:45:30 11:51:01 45° 70° (ENE) 11:56:05 435.910
QB50P2 30 Jul 11:47:27 11:51:37 54° 260° (W) 11:55:50 145.880/145.840
POLYITAN 1 30 Jul 11:50:05 11:54:15 53° 260° (W) 11:58:28 437.675
TIGRISAT 30 Jul 11:51:01 11:52:34 11° 272° (W) 11:54:08 435.000
M-CUBED/EXP-1 PRIME 30 Jul 11:57:21 12:01:33 33° 297° (WNW) 12:05:43 437.505
YUBILEINY 30 Jul 12:09:49 12:14:39 16° 303° (WNW) 12:19:33 435.215
DX 1 30 Jul 12:16:20 12:20:15 31° 97° (E) 12:24:10 434.975-435.025
AUBIESAT-1 30 Jul 12:20:45 12:24:27 24° 300° (WNW) 12:28:06 437.475
UKube-1 30 Jul 12:23:19 12:27:07 29° 97° (E) 12:30:54 .
AISAT 30 Jul 12:28:49 12:33:17 64° 102° (ESE) 12:37:42 437.250
NANOSAT C BR1 30 Jul 12:31:03 12:34:16 21° 266° (W) 12:37:31 145.865
BUGSAT 1 30 Jul 12:32:18 12:36:14 45° 261° (W) 12:40:15 437.445
RS-15 30 Jul 12:32:32 12:42:45 29° 20° (NNE) 12:53:01 29.354- 29.394
DUCHIFAT 1 30 Jul 12:33:33 12:36:46 21° 266° (W) 12:40:01 145.980
50 SAT 30 Jul 12:45:54 12:49:30 71° 284° (WNW) 12:53:04 437.505
SPROUT 30 Jul 12:49:22 12:53:35 49° 99° (E) 12:57:46 437.525
QB50P1 30 Jul 12:58:07 12:59:07 11° 271° (W) 13:00:09 145.935-145.965
AO-7 30 Jul 12:59:25 13:02:52 13° 42° (NE) 13:06:19 29.400- 29.500
Oscar 19 30 Jul 13:10:32 13:15:37 71° 73° (ENE) 13:20:44 437.125/150
CUBEBUG 1 30 Jul 13:11:54 13:16:02 39° 289° (WNW) 13:20:08 437.445
ITAMSAT 1 30 Jul 13:16:42 13:19:12 14° 58° (ENE) 13:21:42 435.822/435.867
AIST 1 30 Jul 13:17:00 13:21:15 81° 278° (W) 13:25:32
ESTCUBE 1 30 Jul 13:19:16 13:22:52 24° 294° (WNW) 13:26:28 437.505/2401.250
VELOX 1 30 Jul 13:20:10 13:24:18 39° 290° (WNW) 13:28:26 145.980
Gurwin Techsat 1B 30 Jul 13:20:19 13:25:15 40° 69° (ENE) 13:30:12 435.225
AO-85 30 Jul 13:20:32 13:25:55 88° 121° (ESE) 13:31:04 145.980
JAS-2 30 Jul 13:31:35 13:36:17 24° 265° (W) 13:40:40 435.910
TISAT 1 30 Jul 13:31:53 13:35:45 33° 97° (E) 13:39:34 437.305
Cosmos 2504 30 Jul 13:34:42 13:38:14 13° 305° (NW) 13:41:46 435.465 / 435.565
DX 1 30 Jul 13:52:44 13:56:18 25° 293° (WNW) 13:59:52 434.975-435.025
CUSAT 1 30 Jul 13:53:32 13:56:28 32° 78° (ENE) 14:00:04 437.405
UKube-1 30 Jul 13:59:28 14:03:04 26° 293° (WNW) 14:06:39 .
BEESAT 30 Jul 14:00:44 14:03:01 13° 90° (E) 14:05:17 436.000
AISAT 30 Jul 14:06:55 14:09:13 14° 298° (WNW) 14:11:31 437.250
GONETS M04 30 Jul 14:17:13 14:24:47 35° 85° (E) 14:32:25
Cosmos 2499 30 Jul 14:24:13 14:31:28 30° 83° (E) 14:38:31 435.465 / 435.565
ITUPSAT 1 30 Jul 14:25:04 14:28:52 23° 94° (E) 14:32:39 437.325
SPROUT 30 Jul 14:26:25 14:29:09 17° 296° (WNW) 14:31:51 437.525
SO-50 30 Jul 14:37:32 14:40:35 17° 37° (NE) 14:43:33 436.795
AO-7 30 Jul 14:45:44 14:53:46 53° 64° (ENE) 15:01:49 29.400- 29.500
RS-15 30 Jul 14:46:01 14:58:20 65° 50° (NE) 15:10:29 29.354- 29.394
DANDE 30 Jul 14:50:56 14:53:30 41° 79° (E) 14:56:26 436.750
ITAMSAT 1 30 Jul 14:52:41 14:57:56 87° 256° (WSW) 15:03:11 435.822/435.867
Oscar 19 30 Jul 14:52:50 14:55:28 14° 270° (W) 14:58:06 437.125/150
Gurwin Techsat 1B 30 Jul 15:00:53 15:05:18 27° 265° (W) 15:09:46 435.225
AO-85 30 Jul 15:03:22 15:07:01 19° 320° (NW) 15:10:33 145.980
TISAT 1 30 Jul 15:07:52 15:11:13 23° 293° (WNW) 15:14:32 437.305
SWISSCUBE 30 Jul 15:15:31 15:20:18 85° 103° (ESE) 15:25:03 437.505
PHONESAT 2.4 30 Jul 15:20:23 15:22:36 18° 154° (SSE) 15:24:50 2401.200-2431.200
BEESAT 30 Jul 15:36:30 15:41:15 67° 287° (WNW) 15:45:57 436.000
CUSAT 1 30 Jul 15:36:57 15:38:21 12° 266° (W) 15:39:52 437.405
MOZHAYETS 4 30 Jul 15:45:14 15:48:42 21° 93° (E) 15:52:07
ITUPSAT 1 30 Jul 16:02:24 16:06:48 38° 291° (WNW) 16:11:11 437.325
GONETS M04 30 Jul 16:12:53 16:21:16 52° 285° (WNW) 16:29:46
Cosmos 2499 30 Jul 16:15:13 16:24:01 64° 282° (WNW) 16:32:32 435.465 / 435.565
SO-50 30 Jul 16:17:02 16:21:41 83° 240° (WSW) 16:26:11 436.795
KKS-1 30 Jul 16:19:57 16:24:14 42° 99° (E) 16:28:30 437.445
NOAA 18 30 Jul 16:29:46 16:31:53 12° 55° (NE) 16:34:01 137.9125
BEESAT 3 30 Jul 16:33:36 16:34:35 11° 108° (ESE) 16:35:34 437.485
ITAMSAT 1 30 Jul 16:37:22 16:38:07 10° 272° (W) 16:38:52 435.822/435.867
Cubesat XI-IV 30 Jul 16:39:01 16:41:36 14° 58° (ENE) 16:44:11 437.490
AO-7 30 Jul 16:39:12 16:46:44 37° 262° (W) 16:54:21 29.400- 29.500
HORYU 2 30 Jul 16:42:09 16:46:36 68° 74° (ENE) 16:51:06 437.375
STARS 30 Jul 16:48:24 16:52:38 42° 99° (E) 16:56:50 437.465
SWISSCUBE 30 Jul 16:55:36 16:57:23 12° 301° (WNW) 16:59:10 437.505
PHONESAT 2.4 30 Jul 16:55:44 16:58:43 49° 170° (S) 17:01:44 2401.200-2431.200
CUTE-I 30 Jul 16:59:52 17:03:46 21° 62° (ENE) 17:07:40 437.470
BRITE-PL 30 Jul 17:05:32 17:09:01 27° 68° (ENE) 17:12:35 437.365/2234.400
